Location: Scarborough
(43.7500°N, 79.2000°W)
Time: 19:03:16
(UTC-05:00)

Envisat - Visible Passes

Search period start: 14 November 2018 00:00
Search period end: 24 November 2018 00:00
Orbit: 764 x 766 km, 98.2° (Epoch: 14 November)

Date Brightness Start Highest point End Pass type
(mag) Time Alt. Az. Time Alt. Az. Time Alt. Az.
14 Nov 6.3 06:36:44 10° ENE 06:38:29 12° E 06:40:14 10° ESE visible
14 Nov 4.2 17:51:46 10° ESE 17:55:20 20° ENE 17:58:54 10° NNE visible
14 Nov 3.5 19:30:48 23° S 19:33:55 58° W 19:38:56 10° NNW visible
15 Nov 2.9 18:53:51 21° SSE 18:57:10 66° ENE 19:02:14 10° N visible
15 Nov 5.6 20:34:04 11° WSW 20:36:40 16° W 20:39:40 10° NW visible
16 Nov 3.7 18:16:53 13° ESE 18:20:38 31° ENE 18:25:05 10° N visible
16 Nov 4.5 19:57:07 22° SW 19:59:35 33° W 20:04:11 10° NNW visible
17 Nov 4.5 17:41:17 10° E 17:44:17 16° ENE 17:47:18 10° NNE visible
17 Nov 3.1 19:20:08 30° S 19:22:42 73° WSW 19:27:48 10° NNW visible
18 Nov 3.0 18:43:09 24° SE 18:46:01 53° ENE 18:50:58 10° N visible
18 Nov 5.3 20:23:22 16° WSW 20:25:20 20° W 20:29:00 10° NW visible
19 Nov 3.9 18:06:08 13° ESE 18:09:32 26° ENE 18:13:40 10° N visible
19 Nov 4.1 19:46:21 29° SW 19:48:20 42° W 19:53:09 10° NNW visible
20 Nov 4.6 17:31:01 10° E 17:33:15 13° ENE 17:35:29 10° NNE visible
20 Nov 2.9 19:09:21 36° SSE 19:11:30 90° ENE 19:16:37 10° NNW visible
20 Nov 6.0 20:49:54 10° WSW 20:51:13 11° W 20:52:33 10° WNW visible
21 Nov 3.3 18:32:19 24° SE 18:34:53 42° ENE 18:39:40 10° N visible
21 Nov 5.0 20:12:31 21° WSW 20:14:03 24° W 20:18:11 10° NW visible
22 Nov 6.1 06:39:26 10° ENE 06:41:43 13° E 06:43:59 10° ESE visible
22 Nov 4.1 17:55:16 12° ESE 17:58:27 21° ENE 18:02:12 10° NNE visible
22 Nov 3.6 19:35:29 38° SSW 19:37:06 53° W 19:42:04 10° NNW visible
23 Nov 4.8 17:21:26 10° ENE 17:22:14 10° NE 17:23:01 10° NE visible
23 Nov 2.8 18:58:25 38° SSE 19:00:20 72° ENE 19:05:25 10° N visible
23 Nov 5.7 20:38:37 13° WSW 20:39:53 14° W 20:42:33 10° WNW visible
